GLOBALSTAR M004 DEB, 43357

Orbit data source: Space-Track

GLOBALSTAR M004 DEB, 43357 is space debris in LEO originally from a launch on Sat, 14 Feb 1998 UTC launched from the Air Force Eastern Test Range (AFETR). Debris objects in space refer to the collection of defunct objects orbiting the Earth. Examples of debris include non-operational satellites, rocket bodies, and fragments generated from explosions, collisions, or faulty payload assembly.

Loading next visibility...
Identifier
43357, 1998-008H
Orbit
LEO
Last TLE update
15 hours ago
Origin
Manufacturer
Unknown
Mission
Spacecraft
Bus & Motor
Unknown
Mass
Unknown
Launch date (UTC)
1998-02-14 (27 years ago)
Launch vehicle
Unknown
Launch site
Air Force Eastern Test Range (AFETR)
Object type
Payload
Rocket body
Debris
Shape & HBR
Unknown
Radar Cross Section
Small (<0.1 m²)

Expand to show TLE details & history

TLE from 15 hours ago
0 GLOBALSTAR M004 DEB
1 43357U 98008H   25130.60463974  .00000643  00000-0  42159-2 0  9993
2 43357  51.9686 274.3648 0094121 283.5374  75.5019 12.60026450427626
Epoch: 2025-05-10T14:30Z
Definitive object data (Epoch: 2025-05-10T14:30:40.873Z)
Latitude
-0.00008°
Longitude
-171.94961°
Altitude
1,405.782 km
Speed
7.166 km/s
True Right ascension
18h 17m 27s
True Declination
0° 00' 00"
Sunlit
Object was in full shadow at TLE epoch
Visualization TLE readout
Latitude
18.26933°
Longitude
-159.00243°
Altitude
1,433.118 km
Speed
7.142 km/s
Apparent Right ascension
21h 39m 20s
Apparent Declination
-11° 52' 28"
Sunlit
Object is in daylight
Visualization observer readout
Local Sidereal Time
14:08:31
Azimuth
84.65° E
Elevation
-24.944°
Doppler factor
1
Orbital elements
Apogee altitude
1,496.659 km
Perigee altitude
1,349.804 km
Semi-major axis
7,801.369 km
Eccentricity
0.0094121
Inclination
51.9686°
RAAN
274.3648°
Arg. of periapsis
283.5374°
True anomaly
76.54913°
Mean anomaly
75.5019°
Eccentric anomaly
76.02521°
Mean motion
3.14983 °/min
BSTAR
0.0042159
Orbital period
114.29 mins
Loading maneuver chart data...
Loading SW <> Apogee altitude chart data...
Loading historical data...
Loading historical data...
Loading historical data...
Loading historical data...
Loading historical data...
Loading historical data...
Loading historical data...

GLOBALSTAR M004 DEB Visibility forecast

Observer location: undefined°, undefined°

Span
Click to sort rows by Start time (UTC) header in descending order
Start Az.
Max El. time (UTC)
Max El. Az.
Max El.
End time (UTC)
End Az.
6 mins2025-05-11 09:40:53.836Z136.676° SSE2025-05-11 09:43:53.836Z115.701° SE12.686°2025-05-11 09:46:53.836Z95.019° ESE
16 mins2025-05-11 11:34:53.836Z207.221° SW2025-05-11 11:41:53.836Z143.083° SSE40.472°2025-05-11 11:50:53.836Z57.308° ENE
16 mins2025-05-11 13:34:53.836Z259.252° W2025-05-11 13:42:53.836Z344.121° N39.541°2025-05-11 13:50:53.836Z50.856° ENE
14 mins2025-05-11 15:37:53.836Z300.3° NW2025-05-11 15:43:53.836Z354.343° N31.882°2025-05-11 15:51:53.836Z63.803° ENE
16 mins2025-05-11 17:38:53.836Z312.033° NW2025-05-11 17:45:53.836Z20.237° NNE39.272°2025-05-11 17:54:53.836Z101.809° ESE
16 mins2025-05-11 19:38:53.836Z301.415° NW2025-05-11 19:46:53.836Z212.311° SW41.191°2025-05-11 19:54:53.836Z149.177° SSE
7 mins2025-05-11 21:41:53.836Z264.695° W2025-05-11 21:44:53.836Z243.651° WSW14.029°2025-05-11 21:48:53.836Z216.03° SW
|